IW8RUI-5 Weather Reports


Display with metric or nautical units.
time (UTC)temp
F
wind
direction
speed
MPH
gust
MPH
rain 1hr
in
rain 24hr
in
rain mn
in
humidity
%
barometer
mb
20260504180925 53 173 0.0 0.0 0.00 0.00 0.00 10 1013.0
20260504180425 55 165 0.0 0.0 0.00 0.00 0.00 10 1013.0
20260504175925 56 179 0.0 0.0 0.00 0.00 0.00 10 1013.0
20260504175425 57 181 0.0 0.0 0.00 0.00 0.00 10 1013.0
20260504174925 58 174 0.0 0.0 0.00 0.00 0.00 10 1013.0
20260504174425 59 164 0.0 0.0 0.00 0.00 0.00 10 1013.0
20260504173925 60 164 0.0 0.0 0.00 0.00 0.00 10 1013.0
20260504173425 60 163 0.0 0.0 0.00 0.00 0.00 11 1013.0
20260504172925 61 164 0.0 0.0 0.00 0.00 0.00 11 1013.0
20260504172425 62 185 0.0 0.0 0.00 0.00 0.00 11 1013.0
20260504171925 63 182 0.0 0.0 0.00 0.00 0.00 10 1013.0
20260504171425 63 182 0.0 0.0 0.00 0.00 0.00 10 1013.0
20260504170925 62 176 0.0 0.0 0.00 0.00 0.00 10 1013.0
20260504170425 62 173 0.0 0.0 0.00 0.00 0.00 10 1013.0
20260504160426 64 158 0.0 0.0 0.00 0.00 0.00 13 1013.0
20260504150925 61 160 0.0 0.0 0.00 0.00 0.00 16 1013.0
20260504150425 62 173 0.0 0.0 0.00 0.00 0.00 16 1013.0
20260504140925 60 173 0.0 0.0 0.00 0.00 0.00 14 1013.0
20260504140425 60 162 0.0 0.0 0.00 0.00 0.00 14 1013.0
20260504130425 58 177 0.0 0.0 0.00 0.00 0.00 14 1014.0
20260504110425 59 186 0.0 0.0 0.00 0.00 0.00 10 1014.0
20260504100425 57 173 0.0 0.0 0.00 0.00 0.00 10 1014.0
20260504081925 55 179 0.0 0.0 0.00 0.00 0.00 12 1014.0
20260504081425 55 186 0.0 0.0 0.00 0.00 0.00 12 1014.0
20260504080925 55 186 0.0 0.0 0.00 0.00 0.00 12 1014.0
20260504080425 55 168 0.0 0.0 0.00 0.00 0.00 12 1014.0
20260504050425 43 185 0.0 0.0 0.00 0.00 0.00 10 1013.0
20260504045925 42 176 0.0 0.0 0.00 0.00 0.00 10 1013.0
20260504045425 42 187 0.0 0.0 0.00 0.00 0.00 10 1013.0
20260504044925 42 174 0.0 0.0 0.00 0.00 0.00 10 1013.0
20260504044425 42 187 0.0 0.0 0.00 0.00 0.00 10 1013.0
20260504043925 42 173 0.0 0.0 0.00 0.00 0.00 10 1013.0
20260504043425 42 184 0.0 0.0 0.00 0.00 0.00 10 1013.0
20260504042925 41 161 0.0 0.0 0.00 0.00 0.00 10 1013.0
20260504042425 41 170 0.0 0.0 0.00 0.00 0.00 10 1013.0
20260504041925 41 162 0.0 0.0 0.00 0.00 0.00 10 1013.0
20260504041425 41 173 0.0 0.0 0.00 0.00 0.00 10 1013.0
20260504040925 41 162 0.0 0.0 0.00 0.00 0.00 10 1013.0
20260504040425 41 165 0.0 0.0 0.00 0.00 0.00 10 1013.0
20260504035925 41 161 0.0 0.0 0.00 0.00 0.00 10 1013.0
20260504035425 41 161 0.0 0.0 0.00 0.00 0.00 10 1013.0
20260504034925 41 161 0.0 0.0 0.00 0.00 0.00 10 1013.0
20260504033925 41 160 0.0 0.0 0.00 0.00 0.00 10 1013.0
20260504033425 41 166 0.0 0.0 0.00 0.00 0.00 10 1013.0
20260504032925 41 185 0.0 0.0 0.00 0.00 0.00 10 1013.0
20260504032425 41 161 0.0 0.0 0.00 0.00 0.00 10 1013.0
20260504031925 41 160 0.0 0.0 0.00 0.00 0.00 10 1013.0
20260504031425 41 161 0.0 0.0 0.00 0.00 0.00 10 1013.0
20260504030925 41 181 0.0 0.0 0.00 0.00 0.00 10 1013.0
20260504030425 41 177 0.0 0.0 0.00 0.00 0.00 10 1013.0
20260504025925 41 162 0.0 0.0 0.00 0.00 0.00 10 1013.0
20260504025425 41 185 0.0 0.0 0.00 0.00 0.00 10 1013.0
20260504024925 41 172 0.0 0.0 0.00 0.00 0.00 10 1013.0
20260504024425 41 180 0.0 0.0 0.00 0.00 0.00 10 1013.0
20260504023925 41 181 0.0 0.0 0.00 0.00 0.00 10 1013.0
20260504023425 41 186 0.0 0.0 0.00 0.00 0.00 10 1013.0
20260504022925 41 184 0.0 0.0 0.00 0.00 0.00 10 1013.0
20260504022426 41 177 0.0 0.0 0.00 0.00 0.00 10 1013.0
20260504021925 41 184 0.0 0.0 0.00 0.00 0.00 10 1013.0
20260504021425 41 160 0.0 0.0 0.00 0.00 0.00 10 1013.0
20260504020925 41 185 0.0 0.0 0.00 0.00 0.00 10 1013.0
20260504020425 41 162 0.0 0.0 0.00 0.00 0.00 10 1013.0
20260504015925 41 184 0.0 0.0 0.00 0.00 0.00 10 1013.0
20260504015425 41 170 0.0 0.0 0.00 0.00 0.00 10 1013.0
20260504014925 41 158 0.0 0.0 0.00 0.00 0.00 10 1013.0
20260504014425 41 159 0.0 0.0 0.00 0.00 0.00 10 1013.0
20260504013925 41 180 0.0 0.0 0.00 0.00 0.00 10 1013.0
20260504013425 41 180 0.0 0.0 0.00 0.00 0.00 10 1013.0
20260504012925 41 161 0.0 0.0 0.00 0.00 0.00 10 1013.0
20260504012425 41 161 0.0 0.0 0.00 0.00 0.00 10 1013.0
20260504011925 41 166 0.0 0.0 0.00 0.00 0.00 10 1013.0
20260504011425 41 158 0.0 0.0 0.00 0.00 0.00 10 1013.0
20260504010925 41 175 0.0 0.0 0.00 0.00 0.00 10 1013.0
20260504010425 41 182 0.0 0.0 0.00 0.00 0.00 10 1013.0
20260504005925 41 182 0.0 0.0 0.00 0.00 0.00 10 1013.0
20260504005425 42 170 0.0 0.0 0.00 0.00 0.00 10 1013.0
20260504004925 42 176 0.0 0.0 0.00 0.00 0.00 10 1013.0
20260504004425 42 177 0.0 0.0 0.00 0.00 0.00 10 1013.0
20260504003925 41 176 0.0 0.0 0.00 0.00 0.00 10 1013.0
20260504003426 42 178 0.0 0.0 0.00 0.00 0.00 10 1013.0
20260504002927 42 177 0.0 0.0 0.00 0.00 0.00 10 1013.0
20260504002425 42 160 0.0 0.0 0.00 0.00 0.00 10 1013.0
20260504001925 42 174 0.0 0.0 0.00 0.00 0.00 10 1013.0
20260504001425 42 181 0.0 0.0 0.00 0.00 0.00 10 1013.0
20260504000925 42 156 0.0 0.0 0.00 0.00 0.00 10 1013.0
20260504000425 42 161 0.0 0.0 0.00 0.00 0.00 10 1013.0
20260503235925 42 160 0.0 0.0 0.00 0.00 0.00 10 1013.0
20260503235425 42 164 0.0 0.0 0.00 0.00 0.00 10 1013.0
20260503234925 42 170 0.0 0.0 0.00 0.00 0.00 10 1013.0
20260503234425 42 159 0.0 0.0 0.00 0.00 0.00 10 1013.0
20260503233925 42 181 0.0 0.0 0.00 0.00 0.00 10 1013.0
20260503233425 42 169 0.0 0.0 0.00 0.00 0.00 10 1013.0
20260503232925 42 178 0.0 0.0 0.00 0.00 0.00 10 1013.0
20260503232425 42 156 0.0 0.0 0.00 0.00 0.00 10 1013.0
20260503231925 42 170 0.0 0.0 0.00 0.00 0.00 10 1013.0
20260503231425 42 164 0.0 0.0 0.00 0.00 0.00 10 1013.0
20260503230925 42 162 0.0 0.0 0.00 0.00 0.00 10 1013.0
20260503230425 42 181 0.0 0.0 0.00 0.00 0.00 10 1013.0
20260503225925 41 157 0.0 0.0 0.00 0.00 0.00 10 1013.0
20260503225425 41 181 0.0 0.0 0.00 0.00 0.00 10 1013.0
20260503224925 41 156 0.0 0.0 0.00 0.00 0.00 10 1013.0
20260503224425 41 157 0.0 0.0 0.00 0.00 0.00 10 1014.0
20260503223925 42 156 0.0 0.0 0.00 0.00 0.00 10 1014.0
20260503223425 42 156 0.0 0.0 0.00 0.00 0.00 10 1014.0
20260503222925 42 181 0.0 0.0 0.00 0.00 0.00 10 1014.0
20260503222425 42 160 0.0 0.0 0.00 0.00 0.00 10 1014.0
20260503221925 42 180 0.0 0.0 0.00 0.00 0.00 10 1014.0
20260503221425 42 173 0.0 0.0 0.00 0.00 0.00 10 1014.0
20260503220925 42 181 0.0 0.0 0.00 0.00 0.00 10 1014.0
20260503220425 42 164 0.0 0.0 0.00 0.00 0.00 10 1014.0
20260503215925 42 167 0.0 0.0 0.00 0.00 0.00 10 1013.0
20260503215426 42 156 0.0 0.0 0.00 0.00 0.00 10 1013.0
20260503214925 42 177 0.0 0.0 0.00 0.00 0.00 10 1013.0
20260503214425 42 180 0.0 0.0 0.00 0.00 0.00 10 1014.0
20260503213925 42 173 0.0 0.0 0.00 0.00 0.00 10 1014.0
20260503213425 43 155 0.0 0.0 0.00 0.00 0.00 10 1014.0
20260503212925 43 159 0.0 0.0 0.00 0.00 0.00 10 1013.0
20260503212425 42 156 0.0 0.0 0.00 0.00 0.00 10 1013.0
20260503211925 42 169 0.0 0.0 0.00 0.00 0.00 10 1013.0
20260503211425 42 176 0.0 0.0 0.00 0.00 0.00 10 1013.0
20260503210925 42 174 0.0 0.0 0.00 0.00 0.00 10 1013.0
20260503210425 42 179 0.0 0.0 0.00 0.00 0.00 10 1013.0
20260503205925 42 155 0.0 0.0 0.00 0.00 0.00 10 1013.0
20260503205425 42 175 0.0 0.0 0.00 0.00 0.00 10 1013.0
20260503204925 42 165 0.0 0.0 0.00 0.00 0.00 10 1013.0
20260503204425 42 171 0.0 0.0 0.00 0.00 0.00 10 1013.0
20260503203925 42 180 0.0 0.0 0.00 0.00 0.00 10 1013.0
20260503203425 42 178 0.0 0.0 0.00 0.00 0.00 13 1013.0
20260503202925 42 157 0.0 0.0 0.00 0.00 0.00 13 1013.0
20260503202426 42 154 0.0 0.0 0.00 0.00 0.00 13 1013.0
20260503201925 42 178 0.0 0.0 0.00 0.00 0.00 13 1013.0
20260503201425 42 175 0.0 0.0 0.00 0.00 0.00 13 1013.0
20260503200925 42 154 0.0 0.0 0.00 0.00 0.00 15 1013.0
20260503200425 43 154 0.0 0.0 0.00 0.00 0.00 15 1013.0
20260503195925 43 178 0.0 0.0 0.00 0.00 0.00 15 1013.0
20260503195425 43 155 0.0 0.0 0.00 0.00 0.00 15 1013.0
20260503194925 43 171 0.0 0.0 0.00 0.00 0.00 15 1013.0
20260503194425 43 178 0.0 0.0 0.00 0.00 0.00 15 1013.0
20260503193925 43 178 0.0 0.0 0.00 0.00 0.00 15 1013.0
20260503193425 43 153 0.0 0.0 0.00 0.00 0.00 15 1013.0
20260503192925 43 177 0.0 0.0 0.00 0.00 0.00 15 1013.0
20260503192425 43 154 0.0 0.0 0.00 0.00 0.00 15 1013.0
20260503191925 44 178 0.0 0.0 0.00 0.00 0.00 15 1013.0
20260503191425 44 178 0.0 0.0 0.00 0.00 0.00 15 1013.0
20260503190925 44 176 0.0 0.0 0.00 0.00 0.00 15 1013.0
20260503190425 44 154 0.0 0.0 0.00 0.00 0.00 17 1013.0
20260503185925 44 164 0.0 0.0 0.00 0.00 0.00 17 1013.0
20260503185425 44 153 0.0 0.0 0.00 0.00 0.00 17 1013.0
20260503184925 44 162 0.0 0.0 0.00 0.00 0.00 17 1013.0
20260503184425 45 161 0.0 0.0 0.00 0.00 0.00 17 1013.0
20260503183925 45 172 0.0 0.0 0.00 0.00 0.00 17 1013.0
20260503183425 45 177 0.0 0.0 0.00 0.00 0.00 17 1013.0
20260503182925 45 168 0.0 0.0 0.00 0.00 0.00 17 1013.0
20260503181925 46 152 0.0 0.0 0.00 0.00 0.00 17 1013.0
20260503181425 46 160 0.0 0.0 0.00 0.00 0.00 17 1012.0